TimePDT,TemperatureF,Dew PointF,Humidity,Sea Level PressureIn,VisibilityMPH,Wind Direction,Wind SpeedMPH,Gust SpeedMPH,PrecipitationIn,Events,Conditions,WindDirDegrees,DateUTC
12:53 AM,53.1,46.0,77,30.25,10.0,Calm,Calm,-,N/A,,Clear,0,2013-11-01 07:53:00
1:53 AM,53.1,46.9,80,30.25,10.0,Variable,5.8,-,N/A,,Clear,0,2013-11-01 08:53:00
2:53 AM,48.9,44.1,83,30.26,10.0,SW,3.5,-,N/A,,Clear,230,2013-11-01 09:53:00
3:53 AM,44.1,41.0,89,30.25,10.0,ESE,6.9,-,N/A,,Clear,120,2013-11-01 10:53:00
4:53 AM,46.9,43.0,86,30.26,10.0,Calm,Calm,-,N/A,,Clear,0,2013-11-01 11:53:00
5:53 AM,43.0,39.9,89,30.27,10.0,East,6.9,-,N/A,,Clear,100,2013-11-01 12:53:00
6:53 AM,39.9,37.9,93,30.28,10.0,Calm,Calm,-,N/A,,Clear,0,2013-11-01 13:53:00
7:53 AM,39.0,37.0,93,30.28,10.0,ESE,5.8,-,N/A,,Clear,120,2013-11-01 14:53:00
8:53 AM,43.0,39.9,89,30.30,10.0,Calm,Calm,-,N/A,,Clear,0,2013-11-01 15:53:00
9:53 AM,48.0,42.1,80,30.30,10.0,NNW,5.8,-,N/A,,Clear,330,2013-11-01 16:53:00
10:53 AM,50.0,43.0,77,30.27,10.0,Calm,Calm,-,N/A,,Clear,0,2013-11-01 17:53:00
11:53 AM,54.0,44.1,69,30.25,10.0,Calm,Calm,-,N/A,,Clear,0,2013-11-01 18:53:00
12:53 PM,57.0,44.1,62,30.21,10.0,Calm,Calm,-,N/A,,Clear,0,2013-11-01 19:53:00
1:53 PM,61.0,43.0,52,30.17,10.0,Calm,Calm,-,N/A,,Clear,0,2013-11-01 20:53:00
2:53 PM,63.0,43.0,48,30.14,10.0,Calm,Calm,-,N/A,,Clear,0,2013-11-01 21:53:00
3:53 PM,64.0,43.0,46,30.11,10.0,Calm,Calm,-,N/A,,Clear,0,2013-11-01 22:53:00
4:53 PM,62.1,43.0,50,30.08,10.0,Calm,Calm,-,N/A,,Clear,0,2013-11-01 23:53:00
5:53 PM,59.0,44.1,58,30.05,10.0,Calm,Calm,-,N/A,,Clear,0,2013-11-02 00:53:00
6:53 PM,55.9,44.1,64,30.04,10.0,Calm,Calm,-,N/A,,Partly Cloudy,0,2013-11-02 01:53:00
7:53 PM,55.0,45.0,69,30.01,10.0,SE,3.5,-,N/A,,Clear,130,2013-11-02 02:53:00
8:53 PM,53.1,44.1,71,29.99,10.0,Calm,Calm,-,N/A,,Clear,0,2013-11-02 03:53:00
9:53 PM,53.1,44.1,71,29.98,10.0,Calm,Calm,-,N/A,,Clear,0,2013-11-02 04:53:00
10:53 PM,51.1,45.0,80,29.96,10.0,Calm,Calm,-,N/A,,Scattered Clouds,0,2013-11-02 05:53:00
11:53 PM,51.1,45.0,80,29.92,10.0,Calm,Calm,-,0.00,Rain,Light Rain,0,2013-11-02 06:53:00